Year,Month,Day,Hour,Minute,Value (Times are PST for temperature in C)
2019,05,27,00,00,13.30
2019,05,27,00,01,13.30
2019,05,27,00,02,13.30
2019,05,27,00,03,13.30
2019,05,27,00,04,13.30
2019,05,27,00,05,13.30
2019,05,27,00,06,13.20
2019,05,27,00,07,13.20
2019,05,27,00,08,13.20
2019,05,27,00,09,13.10
2019,05,27,00,10,13.10
2019,05,27,00,11,13.00
2019,05,27,00,12,13.00
2019,05,27,00,13,12.90
2019,05,27,00,14,12.90
2019,05,27,00,15,12.80
2019,05,27,00,16,12.80
2019,05,27,00,17,12.80
2019,05,27,00,18,12.80
2019,05,27,00,19,12.70
2019,05,27,00,20,12.70
2019,05,27,00,21,12.70
2019,05,27,00,22,12.60
2019,05,27,00,23,12.60
2019,05,27,00,24,12.60
2019,05,27,00,25,12.50
2019,05,27,00,26,12.50
2019,05,27,00,27,12.50
2019,05,27,00,28,12.40
2019,05,27,00,29,12.40
2019,05,27,00,30,12.30
2019,05,27,00,31,12.30
2019,05,27,00,32,12.20
2019,05,27,00,33,12.20
2019,05,27,00,34,12.10
2019,05,27,00,35,12.10
2019,05,27,00,36,12.10
2019,05,27,00,37,12.10
2019,05,27,00,38,12.10
2019,05,27,00,39,12.00
2019,05,27,00,40,12.00
2019,05,27,00,41,12.00
2019,05,27,00,42,11.90
2019,05,27,00,43,11.90
2019,05,27,00,44,11.90
2019,05,27,00,45,11.90
2019,05,27,00,46,11.90
2019,05,27,00,47,11.90
2019,05,27,00,48,11.90
2019,05,27,00,49,11.80
2019,05,27,00,50,11.80
2019,05,27,00,51,11.80
2019,05,27,00,52,11.80
2019,05,27,00,53,11.90
2019,05,27,00,54,11.90
2019,05,27,00,55,11.80
2019,05,27,00,56,11.80
2019,05,27,00,57,11.80
2019,05,27,00,58,11.80
2019,05,27,00,59,11.80
2019,05,27,01,00,11.80
2019,05,27,01,01,11.70
2019,05,27,01,02,11.70
2019,05,27,01,03,11.70
2019,05,27,01,04,11.70
2019,05,27,01,05,11.70
2019,05,27,01,06,11.70
2019,05,27,01,07,11.60
2019,05,27,01,08,11.60
2019,05,27,01,09,11.60
2019,05,27,01,10,11.60
2019,05,27,01,11,11.60
2019,05,27,01,12,11.60
2019,05,27,01,13,11.60
2019,05,27,01,14,11.60
2019,05,27,01,15,11.60
2019,05,27,01,16,11.50
2019,05,27,01,17,11.50
2019,05,27,01,18,11.50
2019,05,27,01,19,11.50
2019,05,27,01,20,11.50
2019,05,27,01,21,11.50
2019,05,27,01,22,11.40
2019,05,27,01,23,11.40
2019,05,27,01,24,11.40
2019,05,27,01,25,11.50
2019,05,27,01,26,11.50
2019,05,27,01,27,11.50
2019,05,27,01,28,11.50
2019,05,27,01,29,11.60
2019,05,27,01,30,11.50
2019,05,27,01,31,11.50
2019,05,27,01,32,11.50
2019,05,27,01,33,11.50
2019,05,27,01,34,11.60
2019,05,27,01,35,11.60
2019,05,27,01,36,11.60
2019,05,27,01,37,11.60
2019,05,27,01,38,11.70
2019,05,27,01,39,11.70
2019,05,27,01,40,11.70
2019,05,27,01,41,11.70
2019,05,27,01,42,11.70
2019,05,27,01,43,11.70
2019,05,27,01,44,11.70
2019,05,27,01,45,11.70
2019,05,27,01,46,11.70
2019,05,27,01,47,11.70
2019,05,27,01,48,11.60
2019,05,27,01,49,11.60
2019,05,27,01,50,11.60
2019,05,27,01,51,11.60
2019,05,27,01,52,11.60
2019,05,27,01,53,11.60
2019,05,27,01,54,11.60
2019,05,27,01,55,11.70
2019,05,27,01,56,11.70
2019,05,27,01,57,11.70
2019,05,27,01,58,11.70
2019,05,27,01,59,11.80
2019,05,27,02,00,11.80
2019,05,27,02,01,11.80
2019,05,27,02,02,11.80
2019,05,27,02,03,11.70
2019,05,27,02,04,11.70
2019,05,27,02,05,11.70
2019,05,27,02,06,11.70
2019,05,27,02,07,11.70
2019,05,27,02,08,11.60
2019,05,27,02,09,11.60
2019,05,27,02,10,11.60
2019,05,27,02,11,11.60
2019,05,27,02,12,11.60
2019,05,27,02,13,11.60
2019,05,27,02,14,11.50
2019,05,27,02,15,11.50
2019,05,27,02,16,11.50
2019,05,27,02,17,11.50
2019,05,27,02,18,11.50
2019,05,27,02,19,11.50
2019,05,27,02,20,11.50
2019,05,27,02,21,11.40
2019,05,27,02,22,11.40
2019,05,27,02,23,11.40
2019,05,27,02,24,11.40
2019,05,27,02,25,11.50
2019,05,27,02,26,11.50
2019,05,27,02,27,11.50
2019,05,27,02,28,11.60
2019,05,27,02,29,11.60
2019,05,27,02,30,11.60
2019,05,27,02,31,11.70
2019,05,27,02,32,11.70
2019,05,27,02,33,11.70
2019,05,27,02,34,11.70
2019,05,27,02,35,11.60
2019,05,27,02,36,11.60
2019,05,27,02,37,11.60
2019,05,27,02,38,11.60
2019,05,27,02,39,11.60
2019,05,27,02,40,11.60
2019,05,27,02,41,11.60
2019,05,27,02,42,11.60
2019,05,27,02,43,11.60
2019,05,27,02,44,11.50
2019,05,27,02,45,11.50
2019,05,27,02,46,11.50
2019,05,27,02,47,11.40
2019,05,27,02,48,11.40
2019,05,27,02,49,11.40
2019,05,27,02,50,11.40
2019,05,27,02,51,11.40
2019,05,27,02,52,11.40
2019,05,27,02,53,11.40
2019,05,27,02,54,11.40
2019,05,27,02,55,11.40
2019,05,27,02,56,11.40
2019,05,27,02,57,11.40
2019,05,27,02,58,11.40
2019,05,27,02,59,11.40
2019,05,27,03,00,11.30
2019,05,27,03,01,11.30
2019,05,27,03,02,11.30
2019,05,27,03,03,11.30
2019,05,27,03,04,11.30
2019,05,27,03,05,11.20
2019,05,27,03,06,11.20
2019,05,27,03,07,11.20
2019,05,27,03,08,11.20
2019,05,27,03,09,11.20
2019,05,27,03,10,11.20
2019,05,27,03,11,11.10
2019,05,27,03,12,11.10
2019,05,27,03,13,11.10
2019,05,27,03,14,11.10
2019,05,27,03,15,11.10
2019,05,27,03,16,11.10
2019,05,27,03,17,11.20
2019,05,27,03,18,11.10
2019,05,27,03,19,11.10
2019,05,27,03,20,11.10
2019,05,27,03,21,11.10
2019,05,27,03,22,11.10
2019,05,27,03,23,11.00
2019,05,27,03,24,11.00
2019,05,27,03,25,10.90
2019,05,27,03,26,10.90
2019,05,27,03,27,10.90
2019,05,27,03,28,10.90
2019,05,27,03,29,10.90
2019,05,27,03,30,10.90
2019,05,27,03,31,10.80
2019,05,27,03,32,10.80
2019,05,27,03,33,10.80
2019,05,27,03,34,10.80
2019,05,27,03,35,10.80
2019,05,27,03,36,10.80
2019,05,27,03,37,10.80
2019,05,27,03,38,10.70
2019,05,27,03,39,10.70
2019,05,27,03,40,10.70
2019,05,27,03,41,10.70
2019,05,27,03,42,10.70
2019,05,27,03,43,10.70
2019,05,27,03,44,10.70
2019,05,27,03,45,10.60
2019,05,27,03,46,10.60
2019,05,27,03,47,10.60
2019,05,27,03,48,10.60
2019,05,27,03,49,10.60
2019,05,27,03,50,10.60
2019,05,27,03,51,10.60
2019,05,27,03,52,10.50
2019,05,27,03,53,10.50
2019,05,27,03,54,10.50
2019,05,27,03,55,10.50
2019,05,27,03,56,10.50
2019,05,27,03,57,10.40
2019,05,27,03,58,10.40
2019,05,27,03,59,10.40
2019,05,27,04,00,10.40
2019,05,27,04,01,10.40
2019,05,27,04,02,10.40
2019,05,27,04,03,10.40
2019,05,27,04,04,10.40
2019,05,27,04,05,10.30
2019,05,27,04,06,10.30
2019,05,27,04,07,10.30
2019,05,27,04,08,10.30
2019,05,27,04,09,10.30
2019,05,27,04,10,10.30
2019,05,27,04,11,10.30
2019,05,27,04,12,10.20
2019,05,27,04,13,10.20
2019,05,27,04,14,10.20
2019,05,27,04,15,10.20
2019,05,27,04,16,10.20
2019,05,27,04,17,10.10
2019,05,27,04,18,10.10
2019,05,27,04,19,10.10
2019,05,27,04,20,10.10
2019,05,27,04,21,10.10
2019,05,27,04,22,10.00
2019,05,27,04,23,10.00
2019,05,27,04,24,10.00
2019,05,27,04,25,10.00
2019,05,27,04,26,10.00
2019,05,27,04,27,10.00
2019,05,27,04,28,10.00
2019,05,27,04,29,10.00
2019,05,27,04,30,10.00
2019,05,27,04,31,10.00
2019,05,27,04,32,10.00
2019,05,27,04,33,10.00
2019,05,27,04,34,10.00
2019,05,27,04,35,10.00
2019,05,27,04,36,10.00
2019,05,27,04,37,10.00
2019,05,27,04,38,10.00
2019,05,27,04,39,10.00
2019,05,27,04,40,9.90
2019,05,27,04,41,10.00
2019,05,27,04,42,9.90
2019,05,27,04,43,9.90
2019,05,27,04,44,9.90
2019,05,27,04,45,9.90
2019,05,27,04,46,9.90
2019,05,27,04,47,9.90
2019,05,27,04,48,9.80
2019,05,27,04,49,9.80
2019,05,27,04,50,9.80
2019,05,27,04,51,9.80
2019,05,27,04,52,9.80
2019,05,27,04,53,9.70
2019,05,27,04,54,9.70
2019,05,27,04,55,9.70
2019,05,27,04,56,9.70
2019,05,27,04,57,9.70
2019,05,27,04,58,9.70
2019,05,27,04,59,9.60
2019,05,27,05,00,9.60
2019,05,27,05,01,9.60
2019,05,27,05,02,9.60
2019,05,27,05,03,9.60
2019,05,27,05,04,9.50
2019,05,27,05,05,9.50
2019,05,27,05,06,9.50
2019,05,27,05,07,9.50
2019,05,27,05,08,9.50
2019,05,27,05,09,9.50
2019,05,27,05,10,9.50
2019,05,27,05,11,9.50
2019,05,27,05,12,9.40
2019,05,27,05,13,9.40
2019,05,27,05,14,9.40
2019,05,27,05,15,9.40
2019,05,27,05,16,9.40
2019,05,27,05,17,9.40
2019,05,27,05,18,9.40
2019,05,27,05,19,9.30
2019,05,27,05,20,9.30
2019,05,27,05,21,9.30
2019,05,27,05,22,9.30
2019,05,27,05,23,9.40
2019,05,27,05,24,9.40
2019,05,27,05,25,9.40
2019,05,27,05,26,9.40
2019,05,27,05,27,9.40
2019,05,27,05,28,9.50
2019,05,27,05,29,9.50
2019,05,27,05,30,9.50
2019,05,27,05,31,9.50
2019,05,27,05,32,9.40
2019,05,27,05,33,9.40
2019,05,27,05,34,9.40
2019,05,27,05,35,9.40
2019,05,27,05,36,9.40
2019,05,27,05,37,9.40
2019,05,27,05,38,9.40
2019,05,27,05,39,9.50
2019,05,27,05,40,9.50
2019,05,27,05,41,9.50
2019,05,27,05,42,9.50
2019,05,27,05,43,9.50
2019,05,27,05,44,9.50
2019,05,27,05,45,9.50
2019,05,27,05,46,9.50
2019,05,27,05,47,9.50
2019,05,27,05,48,9.40
2019,05,27,05,49,9.40
2019,05,27,05,50,9.40
2019,05,27,05,51,9.40
2019,05,27,05,52,9.40
2019,05,27,05,53,9.40
2019,05,27,05,54,9.40
2019,05,27,05,55,9.40
2019,05,27,05,56,9.40
2019,05,27,05,57,9.40
2019,05,27,05,58,9.40
2019,05,27,05,59,9.40
2019,05,27,06,00,9.40
2019,05,27,06,01,9.40
2019,05,27,06,02,9.40
2019,05,27,06,03,9.40
2019,05,27,06,04,9.40
2019,05,27,06,05,9.50
2019,05,27,06,06,9.50
2019,05,27,06,07,9.50
2019,05,27,06,08,9.60
2019,05,27,06,09,9.60
2019,05,27,06,10,9.60
2019,05,27,06,11,9.60
2019,05,27,06,12,9.70
2019,05,27,06,13,9.70
2019,05,27,06,14,9.70
2019,05,27,06,15,9.70
2019,05,27,06,16,9.70
2019,05,27,06,17,9.70
2019,05,27,06,18,9.80
2019,05,27,06,19,9.80
2019,05,27,06,20,9.80
2019,05,27,06,21,9.80
2019,05,27,06,22,9.80
2019,05,27,06,23,9.80
2019,05,27,06,24,9.80
2019,05,27,06,25,9.80
2019,05,27,06,26,9.80
2019,05,27,06,27,9.80
2019,05,27,06,28,9.90
2019,05,27,06,29,9.90
2019,05,27,06,30,9.90
2019,05,27,06,31,9.90
2019,05,27,06,32,9.90
2019,05,27,06,33,9.90
2019,05,27,06,34,9.90
2019,05,27,06,35,9.90
2019,05,27,06,36,9.90
2019,05,27,06,37,9.90
2019,05,27,06,38,9.90
2019,05,27,06,39,10.00
2019,05,27,06,40,10.00
2019,05,27,06,41,10.00
2019,05,27,06,42,10.10
2019,05,27,06,43,10.10
2019,05,27,06,44,10.10
2019,05,27,06,45,10.10
2019,05,27,06,46,10.20
2019,05,27,06,47,10.20
2019,05,27,06,48,10.20
2019,05,27,06,49,10.20
2019,05,27,06,50,10.20
2019,05,27,06,51,10.30
2019,05,27,06,52,10.30
2019,05,27,06,53,10.30
2019,05,27,06,54,10.30
2019,05,27,06,55,10.40
2019,05,27,06,56,10.40
2019,05,27,06,57,10.40
2019,05,27,06,58,10.50
2019,05,27,06,59,10.50
2019,05,27,07,00,10.60
2019,05,27,07,01,10.60
2019,05,27,07,02,10.70
2019,05,27,07,03,10.70
2019,05,27,07,04,10.70
2019,05,27,07,05,10.80
2019,05,27,07,06,10.80
2019,05,27,07,07,10.80
2019,05,27,07,08,10.90
2019,05,27,07,09,10.90
2019,05,27,07,10,10.90
2019,05,27,07,11,11.00
2019,05,27,07,12,11.00
2019,05,27,07,13,11.00
2019,05,27,07,14,11.10
2019,05,27,07,15,11.10
2019,05,27,07,16,11.20
2019,05,27,07,17,11.20
2019,05,27,07,18,11.30
2019,05,27,07,19,11.30
2019,05,27,07,20,11.30
2019,05,27,07,21,11.40
2019,05,27,07,22,11.40
2019,05,27,07,23,11.50
2019,05,27,07,24,11.60
2019,05,27,07,25,11.60
2019,05,27,07,26,11.70
2019,05,27,07,27,11.80
2019,05,27,07,28,11.90
2019,05,27,07,29,12.00
2019,05,27,07,30,12.10
2019,05,27,07,31,12.20
2019,05,27,07,32,12.20
2019,05,27,07,33,12.30
2019,05,27,07,34,12.30
2019,05,27,07,35,12.40
2019,05,27,07,36,12.40
2019,05,27,07,37,12.40
2019,05,27,07,38,12.40
2019,05,27,07,39,12.40
2019,05,27,07,40,12.50
2019,05,27,07,41,12.50
2019,05,27,07,42,12.60
2019,05,27,07,43,12.70
2019,05,27,07,44,12.80
2019,05,27,07,45,12.90
2019,05,27,07,46,12.90
2019,05,27,07,47,13.00
2019,05,27,07,48,13.10
2019,05,27,07,49,13.20
2019,05,27,07,50,13.20
2019,05,27,07,51,13.20
2019,05,27,07,52,13.30
2019,05,27,07,53,13.30
2019,05,27,07,54,13.30
2019,05,27,07,55,13.30
2019,05,27,07,56,13.40
2019,05,27,07,57,13.40
2019,05,27,07,58,13.50
2019,05,27,07,59,13.50
2019,05,27,08,00,13.60
2019,05,27,08,01,13.60
2019,05,27,08,02,13.70
2019,05,27,08,03,13.70
2019,05,27,08,04,13.80
2019,05,27,08,05,13.80
2019,05,27,08,06,13.90
2019,05,27,08,07,14.00
2019,05,27,08,08,14.00
2019,05,27,08,09,14.10
2019,05,27,08,10,14.10
2019,05,27,08,11,14.10
2019,05,27,08,12,14.20
2019,05,27,08,13,14.20
2019,05,27,08,14,14.20
2019,05,27,08,15,14.20
2019,05,27,08,16,14.30
2019,05,27,08,17,14.30
2019,05,27,08,18,14.30
2019,05,27,08,19,14.30
2019,05,27,08,20,14.30
2019,05,27,08,21,14.30
2019,05,27,08,22,14.30
2019,05,27,08,23,14.30
2019,05,27,08,24,14.20
2019,05,27,08,25,14.20
2019,05,27,08,26,14.20
2019,05,27,08,27,14.20
2019,05,27,08,28,14.10
2019,05,27,08,29,14.10
2019,05,27,08,30,14.10
2019,05,27,08,31,14.10
2019,05,27,08,32,14.10
2019,05,27,08,33,14.10
2019,05,27,08,34,14.10
2019,05,27,08,35,14.10
2019,05,27,08,36,14.10
2019,05,27,08,37,14.00
2019,05,27,08,38,14.00
2019,05,27,08,39,14.10
2019,05,27,08,40,14.10
2019,05,27,08,41,14.20
2019,05,27,08,42,14.20
2019,05,27,08,43,14.30
2019,05,27,08,44,14.30
2019,05,27,08,45,14.30
2019,05,27,08,46,14.40
2019,05,27,08,47,14.40
2019,05,27,08,48,14.40
2019,05,27,08,49,14.40
2019,05,27,08,50,14.40
2019,05,27,08,51,14.40
2019,05,27,08,52,14.40
2019,05,27,08,53,14.40
2019,05,27,08,54,14.40
2019,05,27,08,55,14.40
2019,05,27,08,56,14.40
2019,05,27,08,57,14.40
2019,05,27,08,58,14.30
2019,05,27,08,59,14.30
2019,05,27,09,00,14.30
2019,05,27,09,01,14.20
2019,05,27,09,02,14.20
2019,05,27,09,03,14.20
2019,05,27,09,04,14.20
2019,05,27,09,05,14.20
2019,05,27,09,06,14.20
2019,05,27,09,07,14.20
2019,05,27,09,08,14.20
2019,05,27,09,09,14.20
2019,05,27,09,10,14.20
2019,05,27,09,11,14.20
2019,05,27,09,12,14.20
2019,05,27,09,13,14.20
2019,05,27,09,14,14.20
2019,05,27,09,15,14.20
2019,05,27,09,16,14.10
2019,05,27,09,17,14.10
2019,05,27,09,18,14.10
2019,05,27,09,19,14.10
2019,05,27,09,20,14.10
2019,05,27,09,21,14.20
2019,05,27,09,22,14.20
2019,05,27,09,23,14.20
2019,05,27,09,24,14.20
2019,05,27,09,25,14.20
2019,05,27,09,26,14.30
2019,05,27,09,27,14.30
2019,05,27,09,28,14.30
2019,05,27,09,29,14.40
2019,05,27,09,30,14.40
2019,05,27,09,31,14.50
2019,05,27,09,32,14.50
2019,05,27,09,33,14.50
2019,05,27,09,34,14.60
2019,05,27,09,35,14.70
2019,05,27,09,36,14.70
2019,05,27,09,37,14.70
2019,05,27,09,38,14.80
2019,05,27,09,39,14.80
2019,05,27,09,40,14.80
2019,05,27,09,41,14.80
2019,05,27,09,42,14.80
2019,05,27,09,43,14.80
2019,05,27,09,44,14.80
2019,05,27,09,45,14.70
2019,05,27,09,46,14.70
2019,05,27,09,47,14.80
2019,05,27,09,48,14.80
2019,05,27,09,49,14.90
2019,05,27,09,50,15.00
2019,05,27,09,51,15.10
2019,05,27,09,52,15.20
2019,05,27,09,53,15.30
2019,05,27,09,54,15.30
2019,05,27,09,55,15.40
2019,05,27,09,56,15.50
2019,05,27,09,57,15.60
2019,05,27,09,58,15.60
2019,05,27,09,59,15.60
2019,05,27,10,00,15.60
2019,05,27,10,01,15.70
2019,05,27,10,02,15.70
2019,05,27,10,03,15.70
2019,05,27,10,04,15.70
2019,05,27,10,05,15.80
2019,05,27,10,06,15.80
2019,05,27,10,07,15.90
2019,05,27,10,08,15.90
2019,05,27,10,09,16.00
2019,05,27,10,10,16.10
2019,05,27,10,11,16.10
2019,05,27,10,12,16.10
2019,05,27,10,13,16.20
2019,05,27,10,14,16.20
2019,05,27,10,15,16.20
2019,05,27,10,16,16.10
2019,05,27,10,17,16.10
2019,05,27,10,18,16.10
2019,05,27,10,19,16.00
2019,05,27,10,20,16.00
2019,05,27,10,21,15.90
2019,05,27,10,22,16.00
2019,05,27,10,23,16.00
2019,05,27,10,24,16.10
2019,05,27,10,25,16.10
2019,05,27,10,26,16.10
2019,05,27,10,27,16.20
2019,05,27,10,28,16.20
2019,05,27,10,29,16.20
2019,05,27,10,30,16.30
2019,05,27,10,31,16.40
2019,05,27,10,32,16.50
2019,05,27,10,33,16.60
2019,05,27,10,34,16.70
2019,05,27,10,35,16.70
2019,05,27,10,36,16.70
2019,05,27,10,37,16.70
2019,05,27,10,38,16.70
2019,05,27,10,39,16.70
2019,05,27,10,40,16.70
2019,05,27,10,41,16.70
2019,05,27,10,42,16.70
2019,05,27,10,43,16.70
2019,05,27,10,44,16.70
2019,05,27,10,45,16.60
2019,05,27,10,46,16.60
2019,05,27,10,47,16.60
2019,05,27,10,48,16.60
2019,05,27,10,49,16.70
2019,05,27,10,50,16.70
2019,05,27,10,51,16.80
2019,05,27,10,52,16.80
2019,05,27,10,53,16.90
2019,05,27,10,54,17.00
2019,05,27,10,55,17.00
2019,05,27,10,56,17.10
2019,05,27,10,57,17.20
2019,05,27,10,58,17.20
2019,05,27,10,59,17.30
2019,05,27,11,00,17.50
2019,05,27,11,01,17.60
2019,05,27,11,02,17.70
2019,05,27,11,03,17.80
2019,05,27,11,04,17.80
2019,05,27,11,05,17.80
2019,05,27,11,06,17.90
2019,05,27,11,07,17.90
2019,05,27,11,08,17.90
2019,05,27,11,09,18.00
2019,05,27,11,10,18.00
2019,05,27,11,11,18.10
2019,05,27,11,12,18.10
2019,05,27,11,13,18.10
2019,05,27,11,14,18.10
2019,05,27,11,15,18.00
2019,05,27,11,16,18.00
2019,05,27,11,17,18.00
2019,05,27,11,18,18.00
2019,05,27,11,19,18.00
2019,05,27,11,20,18.10
2019,05,27,11,21,18.20
2019,05,27,11,22,18.20
2019,05,27,11,23,18.30
2019,05,27,11,24,18.30
2019,05,27,11,25,18.30
2019,05,27,11,26,18.30
2019,05,27,11,27,18.30
2019,05,27,11,28,18.30
2019,05,27,11,29,18.30
2019,05,27,11,30,18.30
2019,05,27,11,31,18.20
2019,05,27,11,32,18.10
2019,05,27,11,33,18.10
2019,05,27,11,34,18.00
2019,05,27,11,35,17.90
2019,05,27,11,36,17.80
2019,05,27,11,37,17.70
2019,05,27,11,38,17.70
2019,05,27,11,39,17.70
2019,05,27,11,40,17.60
2019,05,27,11,41,17.60
2019,05,27,11,42,17.60
2019,05,27,11,43,17.60
2019,05,27,11,44,17.60
2019,05,27,11,45,17.70
2019,05,27,11,46,17.70
2019,05,27,11,47,17.80
2019,05,27,11,48,17.80
2019,05,27,11,49,17.90
2019,05,27,11,50,17.90
2019,05,27,11,51,18.00
2019,05,27,11,52,18.10
2019,05,27,11,53,18.10
2019,05,27,11,54,18.20
2019,05,27,11,55,18.20
2019,05,27,11,56,18.30
2019,05,27,11,57,18.30
2019,05,27,11,58,18.30
2019,05,27,11,59,18.40
2019,05,27,12,00,18.40
2019,05,27,12,01,18.50
2019,05,27,12,02,18.50
2019,05,27,12,03,18.60
2019,05,27,12,04,18.60
2019,05,27,12,05,18.70
2019,05,27,12,06,18.80
2019,05,27,12,07,18.80
2019,05,27,12,08,18.80
2019,05,27,12,09,18.90
2019,05,27,12,10,18.90
2019,05,27,12,11,19.00
2019,05,27,12,12,19.00
2019,05,27,12,13,19.00
2019,05,27,12,14,18.90
2019,05,27,12,15,18.90
2019,05,27,12,16,18.90
2019,05,27,12,17,18.90
2019,05,27,12,18,18.90
2019,05,27,12,19,18.90
2019,05,27,12,20,18.90
2019,05,27,12,21,18.90
2019,05,27,12,22,18.90
2019,05,27,12,23,18.90
2019,05,27,12,24,18.90
2019,05,27,12,25,18.90
2019,05,27,12,26,18.90
2019,05,27,12,27,18.90
2019,05,27,12,28,18.90
2019,05,27,12,29,18.90
2019,05,27,12,30,18.90
2019,05,27,12,31,19.00
2019,05,27,12,32,19.00
2019,05,27,12,33,19.00
2019,05,27,12,34,19.00
2019,05,27,12,35,18.90
2019,05,27,12,36,18.80
2019,05,27,12,37,18.70
2019,05,27,12,38,18.70
2019,05,27,12,39,18.70
2019,05,27,12,40,18.70
2019,05,27,12,41,18.80
2019,05,27,12,42,18.80
2019,05,27,12,43,18.80
2019,05,27,12,44,18.90
2019,05,27,12,45,18.90
2019,05,27,12,46,19.00
2019,05,27,12,47,19.00
2019,05,27,12,48,19.10
2019,05,27,12,49,19.10
2019,05,27,12,50,19.20
2019,05,27,12,51,19.40
2019,05,27,12,52,19.40
2019,05,27,12,53,19.50
2019,05,27,12,54,19.60
2019,05,27,12,55,19.70
2019,05,27,12,56,19.70
2019,05,27,12,57,19.70
2019,05,27,12,58,19.70
2019,05,27,12,59,19.70
2019,05,27,13,00,19.70
2019,05,27,13,01,19.70
2019,05,27,13,02,19.70
2019,05,27,13,03,19.70
2019,05,27,13,04,19.70
2019,05,27,13,05,19.60
2019,05,27,13,06,19.60
2019,05,27,13,07,19.60
2019,05,27,13,08,19.60
2019,05,27,13,09,19.50
2019,05,27,13,10,19.50
2019,05,27,13,11,19.40
2019,05,27,13,12,19.40
2019,05,27,13,13,19.30
2019,05,27,13,14,19.30
2019,05,27,13,15,19.20
2019,05,27,13,16,19.20
2019,05,27,13,17,19.10
2019,05,27,13,18,19.00
2019,05,27,13,19,19.00
2019,05,27,13,20,18.90
2019,05,27,13,21,19.00
2019,05,27,13,22,19.00
2019,05,27,13,23,19.00
2019,05,27,13,24,19.00
2019,05,27,13,25,19.00
2019,05,27,13,26,19.00
2019,05,27,13,27,18.90
2019,05,27,13,28,18.90
2019,05,27,13,29,19.00
2019,05,27,13,30,19.00
2019,05,27,13,31,18.90
2019,05,27,13,32,18.90
2019,05,27,13,33,18.80
2019,05,27,13,34,18.80
2019,05,27,13,35,18.70
2019,05,27,13,36,18.60
2019,05,27,13,37,18.60
2019,05,27,13,38,18.50
2019,05,27,13,39,18.50
2019,05,27,13,40,18.60
2019,05,27,13,41,18.60
2019,05,27,13,42,18.60
2019,05,27,13,43,18.60
2019,05,27,13,44,18.50
2019,05,27,13,45,18.40
2019,05,27,13,46,18.40
2019,05,27,13,47,18.30
2019,05,27,13,48,18.30
2019,05,27,13,49,18.20
2019,05,27,13,50,18.20
2019,05,27,13,51,18.20
2019,05,27,13,52,18.20
2019,05,27,13,53,18.20
2019,05,27,13,54,18.20
2019,05,27,13,55,18.20
2019,05,27,13,56,18.30
2019,05,27,13,57,18.40
2019,05,27,13,58,18.40
2019,05,27,13,59,18.40
2019,05,27,14,00,18.40
2019,05,27,14,01,18.40
2019,05,27,14,02,18.40
2019,05,27,14,03,18.30
2019,05,27,14,04,18.30
2019,05,27,14,05,18.30
2019,05,27,14,06,18.30
2019,05,27,14,07,18.30
2019,05,27,14,08,18.30
2019,05,27,14,09,18.30
2019,05,27,14,10,18.30
2019,05,27,14,11,18.30
2019,05,27,14,12,18.30
2019,05,27,14,13,18.40
2019,05,27,14,14,18.40
2019,05,27,14,15,18.40
2019,05,27,14,16,18.40
2019,05,27,14,17,18.40
2019,05,27,14,18,18.40
2019,05,27,14,19,18.40
2019,05,27,14,20,18.40
2019,05,27,14,21,18.40
2019,05,27,14,22,18.40
2019,05,27,14,23,18.50
2019,05,27,14,24,18.50
2019,05,27,14,25,18.60
2019,05,27,14,26,18.60
2019,05,27,14,27,18.60
2019,05,27,14,28,18.60
2019,05,27,14,29,18.60
2019,05,27,14,30,18.60
2019,05,27,14,31,18.50
2019,05,27,14,32,18.50
2019,05,27,14,33,18.50
2019,05,27,14,34,18.50
2019,05,27,14,35,18.50
2019,05,27,14,36,18.60
2019,05,27,14,37,18.70
2019,05,27,14,38,18.70
2019,05,27,14,39,18.80
2019,05,27,14,40,18.90
2019,05,27,14,41,18.90
2019,05,27,14,42,18.90
2019,05,27,14,43,18.90
2019,05,27,14,44,19.00
2019,05,27,14,45,19.10
2019,05,27,14,46,19.20
2019,05,27,14,47,19.20
2019,05,27,14,48,19.30
2019,05,27,14,49,19.40
2019,05,27,14,50,19.50
2019,05,27,14,51,19.60
2019,05,27,14,52,19.60
2019,05,27,14,53,19.70
2019,05,27,14,54,19.70
2019,05,27,14,55,19.80
2019,05,27,14,56,19.80
2019,05,27,14,57,19.80
2019,05,27,14,58,19.80
2019,05,27,14,59,19.80
2019,05,27,15,00,19.90
2019,05,27,15,01,20.00
2019,05,27,15,02,20.00
2019,05,27,15,03,20.10
2019,05,27,15,04,20.10
2019,05,27,15,05,20.00
2019,05,27,15,06,20.00
2019,05,27,15,07,20.00
2019,05,27,15,08,19.90
2019,05,27,15,09,19.90
2019,05,27,15,10,20.00
2019,05,27,15,11,20.00
2019,05,27,15,12,20.00
2019,05,27,15,13,20.10
2019,05,27,15,14,20.10
2019,05,27,15,15,20.20
2019,05,27,15,16,20.20
2019,05,27,15,17,20.20
2019,05,27,15,18,20.20
2019,05,27,15,19,20.20
2019,05,27,15,20,20.20
2019,05,27,15,21,20.20
2019,05,27,15,22,20.30
2019,05,27,15,23,20.40
2019,05,27,15,24,20.50
2019,05,27,15,25,20.60
2019,05,27,15,26,20.70
2019,05,27,15,27,20.80
2019,05,27,15,28,20.80
2019,05,27,15,29,20.80
2019,05,27,15,30,20.80
2019,05,27,15,31,20.80
2019,05,27,15,32,20.90
2019,05,27,15,33,20.90
2019,05,27,15,34,20.90
2019,05,27,15,35,21.00
2019,05,27,15,36,21.10
2019,05,27,15,37,21.20
2019,05,27,15,38,21.30
2019,05,27,15,39,21.30
2019,05,27,15,40,21.30
2019,05,27,15,41,21.40
2019,05,27,15,42,21.50
2019,05,27,15,43,21.50
2019,05,27,15,44,21.60
2019,05,27,15,45,21.60
2019,05,27,15,46,21.60
2019,05,27,15,47,21.60
2019,05,27,15,48,21.60
2019,05,27,15,49,21.50
2019,05,27,15,50,21.50
2019,05,27,15,51,21.60
2019,05,27,15,52,21.60
2019,05,27,15,53,21.60
2019,05,27,15,54,21.70
2019,05,27,15,55,21.80
2019,05,27,15,56,21.90
2019,05,27,15,57,22.00
2019,05,27,15,58,22.00
2019,05,27,15,59,22.10
2019,05,27,16,00,22.10
2019,05,27,16,01,22.10
2019,05,27,16,02,22.10
2019,05,27,16,03,22.10
2019,05,27,16,04,22.10
2019,05,27,16,05,22.10
2019,05,27,16,06,22.10
2019,05,27,16,07,22.10
2019,05,27,16,08,22.10
2019,05,27,16,09,22.10
2019,05,27,16,10,22.10
2019,05,27,16,11,22.20
2019,05,27,16,12,22.20
2019,05,27,16,13,22.30
2019,05,27,16,14,22.40
2019,05,27,16,15,22.40
2019,05,27,16,16,22.40
2019,05,27,16,17,22.40
2019,05,27,16,18,22.40
2019,05,27,16,19,22.40
2019,05,27,16,20,22.40
2019,05,27,16,21,22.40
2019,05,27,16,22,22.40
2019,05,27,16,23,22.40
2019,05,27,16,24,22.40
2019,05,27,16,25,22.30
2019,05,27,16,26,22.30
2019,05,27,16,27,22.30
2019,05,27,16,28,22.30
2019,05,27,16,29,22.30
2019,05,27,16,30,22.30
2019,05,27,16,31,22.30
2019,05,27,16,32,22.40
2019,05,27,16,33,22.40
2019,05,27,16,34,22.40
2019,05,27,16,35,22.50
2019,05,27,16,36,22.50
2019,05,27,16,37,22.60
2019,05,27,16,38,22.60
2019,05,27,16,39,22.70
2019,05,27,16,40,22.80
2019,05,27,16,41,22.90
2019,05,27,16,42,23.00
2019,05,27,16,43,23.00
2019,05,27,16,44,23.10
2019,05,27,16,45,23.20
2019,05,27,16,46,23.40
2019,05,27,16,47,23.50
2019,05,27,16,48,23.70
2019,05,27,16,49,23.80
2019,05,27,16,50,24.00
2019,05,27,16,51,24.10
2019,05,27,16,52,24.20
2019,05,27,16,53,24.40
2019,05,27,16,54,24.50
2019,05,27,16,55,24.60
2019,05,27,16,56,24.70
2019,05,27,16,57,24.80
2019,05,27,16,58,24.90
2019,05,27,16,59,24.90
2019,05,27,17,00,24.90
2019,05,27,17,01,24.90
2019,05,27,17,02,25.00
2019,05,27,17,03,25.00
2019,05,27,17,04,25.00
2019,05,27,17,05,24.90
2019,05,27,17,06,24.90
2019,05,27,17,07,24.80
2019,05,27,17,08,24.70
2019,05,27,17,09,24.60
2019,05,27,17,10,24.60
2019,05,27,17,11,24.50
2019,05,27,17,12,24.40
2019,05,27,17,13,24.50
2019,05,27,17,14,24.60
2019,05,27,17,15,24.70
2019,05,27,17,16,24.70
2019,05,27,17,17,24.80
2019,05,27,17,18,24.80
2019,05,27,17,19,24.90
2019,05,27,17,20,25.10
2019,05,27,17,21,25.40
2019,05,27,17,22,25.70
2019,05,27,17,23,26.10
2019,05,27,17,24,26.40